Baltimore, MD

6:00 AM EDT on March 29, 2017 (GMT -0400)
Baltimore-Washington International

Weather History for KBWI - June, 2012

Change the Weather History Date:

Saturday, June 2, 2012

  Actual Average Record
Temperature  
Mean Temperature 66 °F 68 °F  
Max Temperature 75 °F 79 °F 96 °F (1923)
Min Temperature 56 °F 58 °F 44 °F (1993)
Degree Days  
Heating Degree Days 0 2  
Month to date heating degree days 0 4  
Since 1 June heating degree days 0 4  
Since 1 July heating degree days 3586 4753  
Cooling Degree Days 1 5  
Month to date cooling degree days 7 10  
Year to date cooling degree days 199 94  
Since 1 June cooling degree days 7 10  
Growing Degree Days 16 (Base 50)    
Moisture  
Dew Point 51 °F    
Average Humidity 69    
Maximum Humidity 100    
Minimum Humidity 38    
Precipitation  
Precipitation 0.00 in 0.12 in 3.94 in (1915)
Month to date precipitation 1.55 0.24  
Year to date precipitation 12.25 17.27  
Snow  
Snow 0.00 in 0.00 in - ()
Month to date snowfall 0.0 0.0  
Since 1 July snowfall 1.8 20.1  
Snow Depth 0.00 in    
Sea Level Pressure  
Sea Level Pressure 29.78 in    
Wind  
Wind Speed 7 mph (WNW)    
Max Wind Speed 21 mph    
Max Gust Speed 29 mph    
Visibility 10 miles    
Events      
T = Trace of Precipitation, MM = Missing Value Source: NWS Daily Summary

Daily Weather History Graph

Daily Weather History Graph

Search for Another Location

Airport or City:

Trip Planner

Search our weather history database for the weather conditions in past years. The results will help you decide how hot, cold, wet, or windy it might be!

Date:

Astronomy

Jun. 02, 2012 Rise Set
Actual Time 5:41 AM EDT 8:28 PM EDT
Civil Twilight 5:10 AM EDT 8:59 PM EDT
Nautical Twilight 4:30 AM EDT 9:39 PM EDT
Astronomical Twilight 3:45 AM EDT 10:24 PM EDT
Moon 6:41 PM EDT (6/2) 3:58 AM EDT (6/2)
Length of Visible Light 15h 49m
Length of Day
14h 46m
Waxing Gibbous, 95% of the Moon is Illuminated
Jun 2
Waxing Gibbous
Jun 4
Full
Jun 11
Last Quarter
Jun 19
New
Jun 26
First Quarter

Hourly Weather History & Observations

Time (EDT) Temp. Dew Point Humidity Pressure Visibility Wind Dir Wind Speed Gust Speed Precip Events Conditions
12:54 AM 62.6 °F 60.8 °F 94% 29.72 in 9.0 mi WSW 4.6 mph - N/A   Overcast
1:54 AM 62.1 °F 60.1 °F 93% 29.71 in 10.0 mi Calm Calm - N/A   Overcast
2:54 AM 61.0 °F 60.1 °F 97% 29.72 in 10.0 mi WSW 4.6 mph - N/A   Overcast
3:54 AM 61.0 °F 57.0 °F 87% 29.72 in 10.0 mi WNW 10.4 mph - N/A   Mostly Cloudy
4:54 AM 57.9 °F 55.0 °F 90% 29.73 in 10.0 mi West 6.9 mph - N/A   Mostly Cloudy
5:54 AM 57.0 °F 55.0 °F 93% 29.76 in 8.0 mi West 3.5 mph - N/A   Mostly Cloudy
6:54 AM 59.0 °F 54.0 °F 83% 29.77 in 9.0 mi NW 4.6 mph - N/A   Mostly Cloudy
7:54 AM 61.0 °F 53.1 °F 75% 29.78 in 10.0 mi NW 5.8 mph - N/A   Scattered Clouds
8:54 AM 66.2 °F 51.8 °F 60% 29.79 in 10.0 mi WNW 9.2 mph 16.1 mph N/A   Scattered Clouds
9:54 AM 66.9 °F 50.0 °F 54% 29.80 in 10.0 mi WNW 9.2 mph 20.7 mph N/A   Mostly Cloudy
10:54 AM 70.0 °F 48.0 °F 46% 29.80 in 10.0 mi NW 18.4 mph 27.6 mph N/A   Mostly Cloudy
11:54 AM 69.1 °F 46.0 °F 44% 29.81 in 10.0 mi WNW 12.7 mph 23.0 mph N/A   Scattered Clouds
12:54 PM 71.1 °F 45.0 °F 39% 29.81 in 10.0 mi NW 17.3 mph 26.5 mph N/A   Scattered Clouds
1:54 PM 72.0 °F 46.9 °F 41% 29.80 in 10.0 mi West 12.7 mph 23.0 mph N/A   Scattered Clouds
2:54 PM 73.0 °F 46.0 °F 38% 29.79 in 10.0 mi WNW 12.7 mph - N/A   Scattered Clouds
3:54 PM 73.0 °F 46.0 °F 38% 29.79 in 10.0 mi West 10.4 mph 19.6 mph N/A   Scattered Clouds
4:54 PM 73.9 °F 46.0 °F 37% 29.78 in 10.0 mi West 17.3 mph 23.0 mph N/A   Scattered Clouds
5:54 PM 73.9 °F 46.9 °F 38% 29.78 in 10.0 mi NW 8.1 mph - N/A   Scattered Clouds
6:54 PM 72.0 °F 45.0 °F 38% 29.78 in 10.0 mi WNW 9.2 mph 17.3 mph N/A   Scattered Clouds
7:54 PM 69.1 °F 46.9 °F 45% 29.79 in 10.0 mi West 5.8 mph - N/A   Scattered Clouds
8:54 PM 66.0 °F 48.9 °F 54% 29.80 in 10.0 mi Calm Calm - N/A   Partly Cloudy
9:54 PM 62.1 °F 51.1 °F 67% 29.82 in 10.0 mi Calm Calm - N/A   Clear
10:54 PM 60.1 °F 51.1 °F 72% 29.83 in 10.0 mi Calm Calm - N/A   Clear
11:54 PM 57.0 °F 52.0 °F 83% 29.83 in 10.0 mi Calm Calm - N/A   Partly Cloudy